Location: T�bingen+AIT
(48.5342°N, 9.0700°E)
Time: 01:50:31
(UTC+02:00)

COSMOS 2406 - Pass Details

Date: 14 September 2017
Orbit: 842 x 865 km, 71.0° (Epoch: 23 September)

Event Time Altitude Azimuth Distance (km) Brightness Sun altitude
Exits shadow 23:37:32 44° 357° (N) 1,171 4.1 -33.9°
Drops below altitude 10° 23:41:39 10° 23° (NNE) 2,503 6.0 -34.2°
Sets 23:44:10 0° 27° (NNE) 3,447 6.8 -34.4°
